This is the latest recevied weather packets stored in our database for station/object HB9SZU-7. If no packets are shown the sender has not sent any weather packets the latest 10 day(s).
| Time | Temp. | Humidity | Pressure | Rain* | Wind** | Luminosity | Snow |
|---|---|---|---|---|---|---|---|
| 1777694989 | 8.89° C | 66% | 945.2 hPa | - | - | - | - |
| 1777694029 | 8.89° C | 66% | 945.1 hPa | - | - | - | - |
| 1777693069 | 8.89° C | 67% | 945 hPa | - | - | - | - |
| 1777692109 | 8.89° C | 66% | 945.1 hPa | - | - | - | - |
| 1777691149 | 9.44° C | 66% | 945.1 hPa | - | - | - | - |
| 1777690189 | 9.44° C | 66% | 945 hPa | - | - | - | - |
| 1777689229 | 9.44° C | 65% | 945 hPa | - | - | - | - |
| 1777688270 | 9.44° C | 65% | 945.1 hPa | - | - | - | - |
| 1777672910 | 11.11° C | 62% | 945.5 hPa | - | - | - | - |
| 1777671950 | 11.11° C | 61% | 945.5 hPa | - | - | - | - |
| 1777670990 | 11.11° C | 61% | 945.5 hPa | - | - | - | - |
| 1777670030 | 11.11° C | 61% | 945.5 hPa | - | - | - | - |
| 1777669070 | 11.67° C | 60% | 945.5 hPa | - | - | - | - |
| 1777668110 | 11.67° C | 60% | 945.4 hPa | - | - | - | - |
| 1777667150 | 12.22° C | 60% | 945.4 hPa | - | - | - | - |
| 1777666189 | 12.22° C | 59% | 945.3 hPa | - | - | - | - |
| 1777665229 | 12.22° C | 59% | 945.2 hPa | - | - | - | - |
| 1777664269 | 12.78° C | 58% | 945 hPa | - | - | - | - |
| 1777663309 | 12.78° C | 58% | 945 hPa | - | - | - | - |
| 1777662349 | 13.33° C | 57% | 944.8 hPa | - | - | - | - |
| 1777660430 | 13.89° C | 56% | 944.3 hPa | - | - | - | - |
| 1777659470 | 14.44° C | 56% | 944.3 hPa | - | - | - | - |
| 1777658509 | 14.44° C | 55% | 944.1 hPa | - | - | - | - |
| 1777657549 | 14.44° C | 55% | 944 hPa | - | - | - | - |
| 1777656590 | 15° C | 55% | 943.9 hPa | - | - | - | - |
* Rain since midnight (hover to see other rain measurements)
** Current wind speed in m/s (hover to see current wind gust speed)